AirNav   Textron
 
 815 users online  

LA81 Sonlef Air Strip
Benton, Louisiana, USA


FAA INFORMATION EFFECTIVE 09 NOVEMBER 2017

Location

FAA Identifier: LA81
Lat/Long: 32-37-47.4500N / 093-39-27.4600W
32-37.790833N / 093-39.457667W
32.6298472 / -93.6576278
(estimated)
Elevation: 165 ft. / 50 m
From city: 6 miles SE of BENTON, LA
Time zone: UTC -6 (UTC -5 during Daylight Saving Time)
Zip code: 71006

Airport Operations

Airport use: Private use. Permission required prior to landing
Activation date: 04/2015
Control tower: no
ARTCC: FORT WORTH CENTER
FSS: DE RIDDER FLIGHT SERVICE STATION
Attendance: 
Wind indicator: yes
Segmented circle: no

Airport Communications

WX ASOS at DTN (7 nm SW): 118.525 (318-425-7967)
WX ASOS at SHV (14 nm SW): PHONE 318-636-5767
WX AWOS-3PT at MNE (18 nm E): 119.325 (318-371-7874)

Nearby radio navigation aids

VOR radial/distance  VOR name  Freq  Var
EICr131/11.5BELCHER VORTAC117.4007E
EMGr340/14.1ELM GROVE VORTAC111.2007E

 
NDB name  Hdg/Dist  Freq  Var  ID
MANSFIELD005/34.441404EMSD -- ... -..
ATLANTA133/39.134704EATA .- - .-

Airport Services

Runway Information

Runway 9/27

Dimensions: 2200 x 75 ft. / 671 x 23 m
Surface: turf
RUNWAY 9  RUNWAY 27
Latitude: 32-37.790833N
Longitude: 093-39.458000W
Elevation: 165.0 ft.
Traffic pattern: leftleft

Airport Ownership and Management from official FAA records

Ownership: Privately-owned
Owner: ATKINS SONNIER FAMILY LDS, LLC
PO BOX 72359
BOSSIER CITY, LA 71172-2369
Phone 318-746-7000
Manager: DONALD SONNIER
PO BOX 72359
BOSSIER CITY, LA 71172-2369
Phone 318-423-4360

Instrument Procedures

There are no published instrument procedures at LA81.

Some nearby airports with instrument procedures:

KDTN - Shreveport Downtown Airport (7 nm SW)
KBAD - Barksdale Air Force Base (8 nm S)
KSHV - Shreveport Regional Airport (14 nm SW)
KMNE - Minden Airport (18 nm E)
3F4 - Vivian Airport (23 nm NW)
 
Loc | Ops | Rwys | IFR | FBO | Links
Com | Nav | Svcs | Stats | Notes


 
Aerial photo
No photo
 
Airport distance calculator
Flying to Sonlef Air Strip? Find the distance to fly.

From to LA81

Sunrise and sunset
Times for 23-Nov-2017
 Local
(UTC-6)
 Zulu
(UTC)
Morning civil twilight06:2612:26
Sunrise06:5312:53
Sunset17:0923:09
Evening civil twilight17:3623:36

Current date and time
Zulu (UTC)  23-Nov-2017 16:06:00
Local (UTC-6)  23-Nov-2017 10:06:00
 
METAR
KDTN 
7nm SW 
231453Z COR 11004KT 10SM SKC 06/M01 A3023
KBAD 
8nm S 
231556Z AUTO 00000KT 10SM CLR 08/M03 A3022 RMK AO2 SLP237 T00821030
KSHV 
14nm SW 
231556Z 00000KT 10SM FEW150 09/M03 A3022 RMK AO2 SLP233 T00891033
KMNE 
18nm E 
231555Z AUTO 00000KT 10SM CLR 09/M01 A3022 RMK AO2 T00851011
TAF
KSHV 
14nm SW 
231224Z 2312/2412 00000KT P6SM FEW250 FM231400 VRB04KT P6SM FEW180 FM240000 00000KT P6SM SKC
NOTAMs
Click for the latest NOTAMs
NOTAMs are issued by the DoD/FAA and will open in a separate window not controlled by AirNav.

 

 
 

Would you like to see your business listed on this page?

 If your business provides an interesting product or service to pilots, flight crews, aircraft, or users of the Sonlef Air Strip, you should consider listing it here.  To start the listing process, click on the button below
 
Add a business
 

Other Pages about Sonlef Air Strip

Update a link
 
Copyright © AirNav, LLC. All rights reserved. Privacy Policy  Contact